Weather History for KDEN - February, 2014

Change the Weather History Date:

Wednesday, February 26, 2014

  Actual Average Record
Temperature  
Mean Temperature 24 °F 35 °F  
Max Temperature 47 °F 49 °F 71 °F (1950)
Min Temperature 1 °F 21 °F -8 °F (2002)
Degree Days  
Heating Degree Days 41 30  
Month to date heating degree days 978 850  
Since 1 July heating degree days 4475 4381  
Cooling Degree Days 0 0  
Month to date cooling degree days 0 0  
Year to date cooling degree days 0 0  
Moisture  
Dew Point 12 °F    
Average Humidity 61    
Maximum Humidity 95    
Minimum Humidity 26    
Precipitation  
Precipitation 0.00 in 0.02 in 0.60 in (1884)
Month to date precipitation 0.19 0.34  
Year to date precipitation 1.13 0.75  
Snow  
Snow 0.00 in - - ()
Month to date snowfall 3.3  
Since 1 July snowfall 25.7  
Snow Depth 1.00 in    
Sea Level Pressure  
Sea Level Pressure 30.10 in    
Wind  
Wind Speed 9 mph (SSE)    
Max Wind Speed 16 mph    
Max Gust Speed 19 mph    
Visibility 9 miles    
Events      
T = Trace of Precipitation, MM = Missing Value Source: NWS Daily Summary

Daily Weather History Graph

Daily Weather History Graph

Search for Another Location

Airport or City:

Trip Planner

Search our weather history database for the weather conditions in past years. The results will help you decide how hot, cold, wet, or windy it might be!

Date:

Astronomy

Feb. 26, 2014 Rise Set
Actual Time 6:36 AM MST 5:47 PM MST
Civil Twilight 6:08 AM MST 6:14 PM MST
Nautical Twilight 5:37 AM MST 6:45 PM MST
Astronomical Twilight 5:06 AM MST 7:17 PM MST
Moon 4:24 AM MST (2/26) 3:05 PM MST (2/26)
Length of Visible Light 12h 05m
Length of Day
11h 11m
Waning Crescent, 9% of the Moon is Illuminated
Feb 26
Waning Crescent
Mar 1
New
Mar 8
First Quarter
Mar 16
Full
Mar 23
Last Quarter

Hourly Weather History & Observations

Time (MST) Temp. Windchill Dew Point Humidity Pressure Visibility Wind Dir Wind Speed Gust Speed Precip Events Conditions
12:53 AM 3.0 °F -12.5 °F -0.9 °F 84% 30.40 in 10.0 mi South 10.4 mph - N/A   Partly Cloudy
1:53 AM 5.0 °F -11.6 °F -0.0 °F 80% 30.33 in 10.0 mi South 12.7 mph - N/A   Partly Cloudy
2:53 AM 12.9 °F -2.2 °F 5.0 °F 71% 30.22 in 10.0 mi South 13.8 mph - N/A   Partly Cloudy
3:53 AM 10.9 °F -4.1 °F 3.9 °F 73% 30.17 in 10.0 mi South 12.7 mph - N/A   Clear
4:53 AM 14.0 °F 3.9 °F 6.1 °F 71% 30.15 in 10.0 mi SSW 6.9 mph - N/A   Clear
5:53 AM 16.0 °F 5.3 °F 8.1 °F 71% 30.12 in 10.0 mi South 8.1 mph - N/A   Clear
6:53 AM 10.0 °F 1.8 °F 5.0 °F 80% 30.15 in 10.0 mi NE 4.6 mph - N/A   Clear
7:19 AM 8.1 °F -5.3 °F 3.0 °F 80% 29.98 in 10.0 mi NNE 9.2 mph - N/A   Partly Cloudy
7:53 AM 10.9 °F 1.4 °F 7.0 °F 84% 30.19 in 5.0 mi ENE 5.8 mph - N/A   Mist
8:53 AM 17.1 °F 8.7 °F 10.0 °F 74% 30.20 in 7.0 mi NE 5.8 mph - N/A   Clear
9:53 AM 19.9 °F 14.9 °F 12.9 °F 74% 30.20 in 8.0 mi Variable 3.5 mph - N/A   Partly Cloudy
10:53 AM 28.0 °F 24.2 °F 18.0 °F 66% 30.19 in 8.0 mi WSW 3.5 mph - N/A   Partly Cloudy
11:53 AM 37.9 °F 35.5 °F 24.1 °F 57% 30.15 in 10.0 mi North 3.5 mph - N/A   Partly Cloudy
12:53 PM 41.0 °F 34.7 °F 19.9 °F 43% 30.11 in 10.0 mi East 10.4 mph - N/A   Partly Cloudy
1:53 PM 44.1 °F 39.5 °F 17.1 °F 34% 30.05 in 10.0 mi SE 8.1 mph - N/A   Partly Cloudy
2:53 PM 45.0 °F 40.6 °F 15.1 °F 30% 29.99 in 10.0 mi ESE 8.1 mph - N/A   Partly Cloudy
3:53 PM 46.0 °F 43.1 °F 14.0 °F 28% 29.98 in 10.0 mi ESE 5.8 mph - N/A   Partly Cloudy
4:53 PM 45.0 °F 39.3 °F 15.1 °F 30% 29.96 in 10.0 mi SE 11.5 mph - N/A   Partly Cloudy
5:53 PM 36.0 °F 28.5 °F 16.0 °F 44% 30.00 in 10.0 mi East 10.4 mph - N/A   Partly Cloudy
6:53 PM 30.9 °F 21.7 °F 17.1 °F 57% 30.04 in 10.0 mi SSE 11.5 mph - N/A   Partly Cloudy
7:53 PM 28.9 °F 18.6 °F 18.0 °F 64% 30.05 in 10.0 mi SE 12.7 mph - N/A   Clear
8:53 PM 27.0 °F 16.7 °F 19.0 °F 72% 30.02 in 10.0 mi SSE 11.5 mph - N/A   Clear
9:53 PM 32.0 °F 22.1 °F 19.0 °F 59% 29.98 in 10.0 mi SW 13.8 mph - N/A   Clear
10:53 PM 30.0 °F 20.0 °F 18.0 °F 61% 29.94 in 10.0 mi WSW 12.7 mph - N/A   Clear
11:53 PM 28.0 °F 20.8 °F 18.0 °F 66% 29.90 in 10.0 mi West 6.9 mph - N/A   Clear